Content
SEND FEEDBACK

Daily
Averages
Monthly
Summary
United States of America

BARRINGTON, ILLINOIS


Home > North America > United States > Illinois
Elevation: 810 feet     Latitude: 42 10N     Longitude: 088 09W

WEATHER
 
SELECT A DAY
Number of Records: 199,595;   Date Range: 1/1/95 - 10/19/14
 
SHARE

PRINT THIS DATA

[ ← Previous Day ]
WEATHER ALMANAC - APRIL 8, 2013
[ Next Day → ]
[ °C ]   °F
Weather ElementAverageHighLow
Temperature52.1 °F63 °F (3:51 pm)42.1 °F (1:51 am)
Dewpoint46.2 °F54 °F (9:51 am)34 °F (1:51 am)
Humidity81.1 %97 % (7:51 am)60 % (3:51 pm)
Barometer29.75 in29.98 in (11:49 pm)29.57 in (9:47 am)
Wind Speed15.7 mph32.2 mph (10:51 am)
Wind Gust43.7 mph (11:51 am)
Weather ElementAverage
Visibility8.3 mi
Wind DirectionSSE (166.7 °)

Weather ElementTotal
Precipitation1.17 in
Heating Degree Days12.5 (Base 65)
Growing Degree Days2.6 (Base 50)
Averaged from 39 records on April 8, 2013
WEATHER CONDITIONS BREAKOUT
WIND DIRECTION BREAKOUT
WEATHER BY HOUR - APRIL 8, 2013
[ °C ]   °F
Local TimeTemperatureDewpointHumidityBarometerVisibilityWind DirectionWind SpeedGust SpeedPrecipitationEventsConditions
1:51 AM42.1 °F34.0 °F73 %29.88 in10.0 miEast (90°)6.9 mphOvercast
2:51 AM43.0 °F35.1 °F74 %29.84 in10.0 miEast (80°)8.1 mphOvercast
3:51 AM44.1 °F36.0 °F73 %29.81 in10.0 miEast (90°)6.9 mphOvercast
4:51 AM46.0 °F37.0 °F71 %29.78 in10.0 miESE (120°)8.1 mphOvercast
5:48 AM44.6 °F39.2 °F81 %29.76 in6.0 miSSE (160°)6.9 mph0.02 inRain-ThunderstormThunderstorms and Rain
5:51 AM45.0 °F39.9 °F82 %29.77 in6.0 miSSE (160°)6.9 mph0.03 inRain-ThunderstormThunderstorms and Rain
6:11 AM46.4 °F42.8 °F87 %29.74 in5.0 miESE (110°)15.0 mph0.07 inRainHeavy Rain
6:20 AM46.4 °F44.6 °F93 %29.73 in4.0 miSE (130°)15.0 mph0.12 inRainHeavy Rain
6:41 AM48.2 °F46.4 °F93 %29.69 in5.0 miESE (110°)10.4 mph0.25 inRainRain
6:51 AM48.9 °F46.9 °F93 %29.69 in5.0 miESE (110°)13.8 mph0.30 inRainRain
7:06 AM50.0 °F48.2 °F94 %29.66 in5.0 miESE (120°)18.4 mph24.2 mph0.02 inRainHeavy Rain
7:16 AM51.8 °F50.0 °F94 %29.65 in4.0 miESE (120°)23.0 mph0.06 inRainRain
7:26 AM51.8 °F50.0 °F94 %29.65 in5.0 miSE (140°)19.6 mph29.9 mph0.07 inRainRain
7:51 AM52.0 °F51.1 °F97 %29.66 in6.0 miSSE (150°)16.1 mph28.8 mph0.11 inRainLight Rain
8:03 AM51.8 °F50.0 °F94 %29.66 in8.0 miSSE (150°)19.6 mph26.5 mph0.01 inRainLight Rain
8:46 AM53.6 °F51.8 °F94 %29.62 in4.0 miSSE (160°)15.0 mph0.04 inRainRain
8:51 AM53.1 °F52.0 °F96 %29.63 in5.0 miSSE (160°)16.1 mph21.9 mph0.04 inRainLight Rain
9:00 AM53.6 °F51.8 °F94 %29.61 in7.0 miSSE (150°)16.1 mph0.01 inRainLight Rain
9:47 AM57.2 °F53.6 °F88 %29.57 in10.0 miSouth (190°)28.8 mph40.3 mph0.01 inOvercast
9:51 AM57.9 °F54.0 °F87 %29.58 in10.0 miSSW (200°)29.9 mph41.4 mph0.01 inOvercast
9:59 AM59.0 °F53.6 °F82 %29.57 in10.0 miSSW (210°)27.6 mph41.4 mphOvercast
10:51 AM62.1 °F50.0 °F65 %29.60 in10.0 miSW (220°)32.2 mph42.6 mphMostly Cloudy
11:51 AM61.0 °F52.0 °F72 %29.64 in10.0 miWSW (250°)29.9 mph43.7 mphMostly Cloudy
12:21 PM57.2 °F50.0 °F77 %29.66 in10.0 miWest (260°)32.2 mph41.4 mphMostly Cloudy
12:46 PM59.0 °F50.0 °F72 %29.68 in10.0 miWest (270°)21.9 mph33.4 mphMostly Cloudy
12:51 PM59.0 °F50.0 °F72 %29.70 in10.0 miWest (260°)27.6 mph39.1 mphMostly Cloudy
1:51 PM61.0 °F50.0 °F67 %29.74 in10.0 miWest (280°)21.9 mph34.5 mphMostly Cloudy
2:51 PM61.0 °F50.0 °F67 %29.76 in10.0 miWNW (290°)15.0 mph25.3 mphMostly Cloudy
3:20 PM60.8 °F50.0 °F68 %29.77 in10.0 miWNW (300°)12.7 mphScattered Clouds
3:51 PM63.0 °F48.9 °F60 %29.78 in10.0 miNW (320°)15.0 mphMostly Cloudy
4:51 PM63.0 °F50.0 °F63 %29.80 in10.0 miNW (310°)6.9 mphScattered Clouds
5:51 PM63.0 °F50.0 °F63 %29.83 in10.0 miNNW (340°)5.8 mphMostly Cloudy
6:51 PM53.1 °F45.0 °F74 %29.86 in10.0 miNE (50°)13.8 mphOvercast
7:51 PM46.0 °F41.0 °F83 %29.90 in10.0 miENE (60°)10.4 mphMostly Cloudy
8:51 PM44.1 °F39.0 °F82 %29.93 in10.0 miENE (70°)6.9 mphMostly Cloudy
9:51 PM44.1 °F39.9 °F85 %29.95 in10.0 miENE (60°)6.9 mphScattered Clouds
10:51 PM44.1 °F39.9 °F85 %29.96 in10.0 miEast (90°)8.1 mphScattered Clouds
11:49 PM42.8 °F39.2 °F87 %29.98 in10.0 miEast (80°)8.1 mph18.4 mphScattered Clouds
11:51 PM42.8 °F39.2 °F87 %29.98 in10.0 miEast (80°)9.2 mphScattered Clouds
Hourly data recorded from KORD, located miles away from Barrington, Illinois







STORIES FROM OUR PARTNERS